Content
SEND FEEDBACK

Daily
Averages
Monthly
Summary
United States of America

CRIVITZ, WISCONSIN


Home > North America > United States > Wisconsin
Elevation: 900 feet     Latitude: 45 19N     Longitude: 088 11W

WEATHER
 
SELECT A DAY
Number of Records: 461,062;   Date Range: 1/1/95 - 9/26/14
 
SHARE

PRINT THIS DATA

[ ← Previous Day ]
WEATHER ALMANAC - JANUARY 31, 2013
[ Next Day → ]
[ °C ]   °F
Weather ElementAverageHighLow
Temperature12.2 °F15.8 °F (12:15 pm)6.8 °F (10:35 pm)
Dewpoint5.8 °F12.2 °F (4:35 am)-2.2 °F (10:55 pm)
Humidity76.1 %100 % (4:35 am)57 % (10:55 am)
Barometer29.72 in29.98 in (11:15 pm)29.47 in (12:35 am)
Wind Speed7.4 mph12.7 mph (12:35 am)
Wind Gust21.9 mph (1:15 am)
Weather ElementAverage
Visibility8.3 mi
Wind DirectionNW (313.4 °)

Weather ElementTotal
Precipitation---
Heating Degree Days53.7 (Base 65)
Averaged from 67 records on January 31, 2013
WEATHER CONDITIONS BREAKOUT
WIND DIRECTION BREAKOUT
WEATHER BY HOUR - JANUARY 31, 2013
[ °C ]   °F
Local TimeTemperatureDewpointHumidityBarometerVisibilityWind DirectionWind SpeedGust SpeedPrecipitationEventsConditions
12:35 AM14.0 °F6.8 °F73 %29.47 in10.0 miWNW (300°)12.7 mph16.1 mphOvercast
12:55 AM14.0 °F6.8 °F73 %29.48 in10.0 miNNW (330°)10.4 mph20.7 mphOvercast
1:15 AM14.0 °F6.8 °F73 %29.49 in10.0 miNW (310°)10.4 mph21.9 mphOvercast
1:35 AM12.2 °F6.8 °F79 %29.50 in10.0 miWNW (300°)6.9 mphOvercast
1:55 AM12.2 °F6.8 °F79 %29.51 in10.0 miNW (310°)8.1 mphOvercast
2:15 AM12.2 °F5.0 °F73 %29.52 in10.0 miNW (320°)9.2 mphOvercast
2:35 AM12.2 °F3.2 °F67 %29.52 in8.0 miNW (320°)9.2 mphOvercast
2:55 AM12.2 °F5.0 °F73 %29.52 in10.0 miNW (310°)9.2 mph16.1 mphOvercast
3:15 AM12.2 °F3.2 °F67 %29.52 in10.0 miNW (310°)6.9 mphMostly Cloudy
3:35 AM12.2 °F8.6 °F85 %29.53 in10.0 miWNW (290°)5.8 mphOvercast
3:55 AM12.2 °F10.4 °F92 %29.54 in10.0 miWNW (290°)5.8 mphOvercast
4:15 AM12.2 °F10.4 °F92 %29.54 in9.0 miWNW (300°)8.1 mphOvercast
4:35 AM12.2 °F12.2 °F100 %29.55 in6.0 miWNW (300°)6.9 mph18.4 mphOvercast
4:55 AM12.2 °F10.4 °F92 %29.55 in7.0 miWNW (300°)6.9 mphOvercast
5:15 AM12.2 °F6.8 °F79 %29.56 in10.0 miWNW (290°)6.9 mphOvercast
5:35 AM12.2 °F3.2 °F67 %29.56 in9.0 miWNW (300°)5.8 mphOvercast
6:15 AM10.4 °F3.2 °F73 %29.58 in9.0 miWNW (290°)6.9 mphOvercast
6:35 AM10.4 °F6.8 °F85 %29.59 in10.0 miWNW (290°)6.9 mphOvercast
6:55 AM10.4 °F8.6 °F92 %29.59 in10.0 miWNW (290°)4.6 mphMostly Cloudy
7:15 AM10.4 °F8.6 °F92 %29.60 in10.0 miWNW (290°)3.5 mphPartly Cloudy
7:35 AM10.4 °F8.6 °F92 %29.61 in10.0 miWNW (290°)5.8 mphMostly Cloudy
7:55 AM10.4 °F5.0 °F79 %29.63 in10.0 miWNW (290°)4.6 mphOvercast
8:15 AM10.4 °F1.4 °F67 %29.64 in10.0 miWNW (290°)6.9 mphOvercast
8:35 AM10.4 °F1.4 °F67 %29.65 in10.0 miWest (280°)6.9 mphOvercast
8:55 AM10.4 °F6.8 °F85 %29.66 in10.0 miWNW (290°)4.6 mphOvercast
9:15 AM12.2 °F10.4 °F92 %29.67 in10.0 miWNW (300°)8.1 mphOvercast
9:35 AM12.2 °F10.4 °F92 %29.68 in10.0 miWNW (300°)5.8 mphOvercast
9:55 AM12.2 °F6.8 °F79 %29.69 in7.0 miNW (310°)6.9 mphOvercast
10:15 AM12.2 °F1.4 °F62 %29.70 in5.0 miNW (310°)5.8 mphOvercast
10:35 AM12.2 °F1.4 °F62 %29.70 in4.0 miNNW (330°)6.9 mphOvercast
10:55 AM14.0 °F1.4 °F57 %29.71 in5.0 miNNW (330°)8.1 mphOvercast
11:15 AM14.0 °F6.8 °F73 %29.71 in3.0 miNW (310°)9.2 mphOvercast
11:35 AM14.0 °F10.4 °F86 %29.71 in3.0 miNW (310°)5.8 mphOvercast
11:55 AM14.0 °F12.2 °F93 %29.71 in6.0 miNW (320°)5.8 mphOvercast
12:15 PM15.8 °F12.2 °F86 %29.71 in9.0 miNW (320°)8.1 mphOvercast
12:35 PM15.8 °F8.6 °F73 %29.71 in9.0 miNNW (340°)9.2 mph16.1 mphOvercast
12:55 PM15.8 °F6.8 °F68 %29.72 in3.0 miNNW (340°)10.4 mphOvercast
1:15 PM15.8 °F3.2 °F58 %29.73 in10.0 miNW (310°)6.9 mphOvercast
1:35 PM15.8 °F3.2 °F58 %29.73 in10.0 miNNW (340°)8.1 mphOvercast
1:55 PM15.8 °F6.8 °F68 %29.74 in8.0 miNNW (330°)5.8 mphOvercast
2:15 PM15.8 °F8.6 °F73 %29.75 in7.0 miNorth (350°)8.1 mphOvercast
2:35 PM15.8 °F10.4 °F79 %29.76 in5.0 miNNW (330°)9.2 mphOvercast
2:55 PM15.8 °F8.6 °F73 %29.76 in10.0 miNW (320°)5.8 mphOvercast
3:15 PM15.8 °F6.8 °F68 %29.77 in8.0 miNW (320°)5.8 mphMostly Cloudy
3:35 PM15.8 °F5.0 °F62 %29.78 in10.0 miNNW (330°)6.9 mphOvercast
3:55 PM15.8 °F8.6 °F73 %29.79 in10.0 miNorth (350°)8.1 mphOvercast
4:15 PM14.0 °F12.2 °F93 %29.80 in2.0 miNorth (360°)10.4 mphOvercast
4:35 PM14.0 °F8.6 °F79 %29.81 in7.0 miNNW (340°)10.4 mphMostly Cloudy
4:55 PM14.0 °F8.6 °F79 %29.82 in5.0 miNorth (350°)10.4 mphMostly Cloudy
5:15 PM14.0 °F3.2 °F62 %29.83 in7.0 miNNW (340°)8.1 mphOvercast
5:35 PM12.2 °F1.4 °F62 %29.85 in10.0 miNorth (350°)10.4 mphOvercast
6:15 PM12.2 °F5.0 °F73 %29.87 in10.0 miNNW (340°)9.2 mphOvercast
6:35 PM12.2 °F5.0 °F73 %29.88 in10.0 miNNW (330°)6.9 mphOvercast
6:55 PM10.4 °F3.2 °F73 %29.89 in10.0 miNNW (330°)5.8 mphOvercast
7:15 PM10.4 °F1.4 °F67 %29.90 in10.0 miNNW (330°)5.8 mphOvercast
7:35 PM10.4 °F1.4 °F67 %29.91 in10.0 miNW (320°)6.9 mphOvercast
8:15 PM10.4 °F3.2 °F73 %29.92 in8.0 miNW (310°)6.9 mphMostly Cloudy
8:35 PM10.4 °F5.0 °F79 %29.93 in5.0 miWNW (300°)8.1 mphOvercast
8:55 PM10.4 °F5.0 °F79 %29.94 in7.0 miNW (310°)6.9 mphOvercast
9:15 PM8.6 °F6.8 °F92 %29.94 in5.0 miNW (310°)9.2 mph16.1 mphOvercast
9:35 PM8.6 °F1.4 °F73 %29.95 in7.0 miWNW (300°)6.9 mphOvercast
9:55 PM8.6 °F-0.4 °F67 %29.95 in5.0 miNW (310°)8.1 mphOvercast
10:15 PM8.6 °F1.4 °F73 %29.96 in10.0 miWNW (300°)5.8 mphOvercast
10:35 PM6.8 °F3.2 °F85 %29.96 in10.0 miWNW (300°)6.9 mphMostly Cloudy
10:55 PM6.8 °F-2.2 °F67 %29.97 in10.0 miWNW (300°)6.9 mphOvercast
11:15 PM6.8 °F-2.2 °F67 %29.98 in10.0 miWNW (290°)6.9 mphMostly Cloudy
11:35 PM6.8 °F3.2 °F85 %29.98 in10.0 miWNW (300°)4.6 mphPartly Cloudy
Hourly data recorded from KMNM, located miles away from Crivitz, Wisconsin







STORIES FROM OUR PARTNERS